Time,TemperatureF,DewpointF,PressureIn,WindDirection,WindDirectionDegrees,WindSpeedMPH,WindSpeedGustMPH,Humidity,HourlyPrecipIn,Conditions,Clouds,dailyrainin,SolarRadiationWatts/m^2,SoftwareType,DateUTC
2013-01-25 00:03:00,42.7,41.4,30.08,South,170,0.0,2.0,95,0.00,,,0.00,0,Wunderground v.1.15,2013-01-25 08:03:00,
2013-01-25 00:08:00,42.8,41.5,30.08,South,170,0.0,2.0,95,0.00,,,0.00,0,Wunderground v.1.15,2013-01-25 08:08:00,
2013-01-25 00:13:00,42.8,41.5,30.08,South,170,0.0,1.0,95,0.00,,,0.01,0,Wunderground v.1.15,2013-01-25 08:13:00,
2013-01-25 00:18:00,42.8,41.5,30.08,South,170,1.0,2.0,95,0.00,,,0.01,0,Wunderground v.1.15,2013-01-25 08:18:00,
2013-01-25 00:23:00,42.8,41.5,30.08,South,170,1.0,2.0,95,0.00,,,0.01,0,Wunderground v.1.15,2013-01-25 08:23:00,
2013-01-25 00:28:00,42.8,41.5,30.08,South,170,1.0,2.0,95,0.00,,,0.01,0,Wunderground v.1.15,2013-01-25 08:28:00,
2013-01-25 00:33:00,42.8,41.5,30.08,South,170,2.0,2.0,95,0.00,,,0.02,0,Wunderground v.1.15,2013-01-25 08:33:00,
2013-01-25 00:38:00,42.9,41.6,30.08,South,170,0.0,2.0,95,0.08,,,0.03,0,Wunderground v.1.15,2013-01-25 08:38:00,
2013-01-25 00:43:00,42.9,41.6,30.08,South,171,2.0,3.0,95,0.08,,,0.03,0,Wunderground v.1.15,2013-01-25 08:43:00,
2013-01-25 00:48:00,42.9,41.6,30.08,South,170,0.0,3.0,95,0.05,,,0.03,0,Wunderground v.1.15,2013-01-25 08:48:00,
2013-01-25 00:53:00,42.9,41.6,30.08,South,170,1.0,2.0,95,0.04,,,0.03,0,Wunderground v.1.15,2013-01-25 08:53:00,
2013-01-25 00:58:00,42.9,41.8,30.08,South,170,0.0,2.0,96,0.00,,,0.03,0,Wunderground v.1.15,2013-01-25 08:58:00,
2013-01-25 01:03:00,43.0,41.9,30.08,South,170,0.0,2.0,96,0.00,,,0.03,0,Wunderground v.1.15,2013-01-25 09:03:00,
2013-01-25 01:08:00,43.0,41.9,30.08,South,171,2.0,2.0,96,0.00,,,0.03,0,Wunderground v.1.15,2013-01-25 09:08:00,
2013-01-25 01:13:00,43.1,42.0,30.08,SSE,159,0.0,2.0,96,0.00,,,0.04,0,Wunderground v.1.15,2013-01-25 09:13:00,
2013-01-25 01:18:00,43.2,42.1,30.07,SSE,157,1.0,4.0,96,0.00,,,0.04,0,Wunderground v.1.15,2013-01-25 09:18:00,
2013-01-25 01:22:00,43.2,42.1,30.08,SSE,161,1.0,4.0,96,0.00,,,0.04,0,Wunderground v.1.15,2013-01-25 09:22:00,
2013-01-25 01:27:00,43.2,42.1,30.07,SSE,162,0.0,4.0,96,0.00,,,0.04,0,Wunderground v.1.15,2013-01-25 09:27:00,
2013-01-25 01:32:00,43.2,42.1,30.07,SSE,164,1.0,4.0,96,0.00,,,0.04,0,Wunderground v.1.15,2013-01-25 09:32:00,
2013-01-25 01:37:00,43.2,42.1,30.07,SSE,165,3.0,4.0,96,0.00,,,0.04,0,Wunderground v.1.15,2013-01-25 09:37:00,
2013-01-25 01:42:00,43.1,42.0,30.07,SSE,165,2.0,3.0,96,0.00,,,0.04,0,Wunderground v.1.15,2013-01-25 09:42:00,
2013-01-25 01:47:00,43.1,42.0,30.07,SSE,156,2.0,4.0,96,0.00,,,0.04,0,Wunderground v.1.15,2013-01-25 09:47:00,
2013-01-25 01:52:00,43.1,42.0,30.07,SSE,156,2.0,4.0,96,0.00,,,0.04,0,Wunderground v.1.15,2013-01-25 09:52:00,
2013-01-25 01:57:00,43.0,41.9,30.07,SSE,165,2.0,4.0,96,0.00,,,0.04,0,Wunderground v.1.15,2013-01-25 09:57:00,
2013-01-25 02:02:00,43.0,41.9,30.07,SSE,158,3.0,4.0,96,0.00,,,0.04,0,Wunderground v.1.15,2013-01-25 10:02:00,
2013-01-25 02:07:00,43.0,41.9,30.07,SSE,154,3.0,4.0,96,0.00,,,0.05,0,Wunderground v.1.15,2013-01-25 10:07:00,
2013-01-25 02:12:00,43.1,42.0,30.07,SSE,163,2.0,4.0,96,0.00,,,0.05,0,Wunderground v.1.15,2013-01-25 10:12:00,
2013-01-25 02:17:00,43.1,42.0,30.07,SSE,161,4.0,4.0,96,0.00,,,0.05,0,Wunderground v.1.15,2013-01-25 10:17:00,
2013-01-25 02:22:00,43.1,42.0,30.07,SSE,163,0.0,3.0,96,0.00,,,0.05,0,Wunderground v.1.15,2013-01-25 10:22:00,
2013-01-25 02:27:00,43.2,42.1,30.07,SSE,160,2.0,3.0,96,0.00,,,0.05,0,Wunderground v.1.15,2013-01-25 10:27:00,
2013-01-25 02:32:00,43.2,42.1,30.08,SSE,163,2.0,4.0,96,0.00,,,0.05,0,Wunderground v.1.15,2013-01-25 10:32:00,
2013-01-25 02:37:00,43.2,42.1,30.08,SSE,163,0.0,4.0,96,0.00,,,0.05,0,Wunderground v.1.15,2013-01-25 10:37:00,
2013-01-25 02:42:00,43.3,42.2,30.08,SSE,163,1.0,2.0,96,0.00,,,0.05,0,Wunderground v.1.15,2013-01-25 10:42:00,
2013-01-25 02:47:00,43.3,42.2,30.08,SSE,165,1.0,4.0,96,0.00,,,0.05,0,Wunderground v.1.15,2013-01-25 10:47:00,
2013-01-25 02:52:00,43.3,42.2,30.07,SSW,209,0.0,6.0,96,0.00,,,0.05,0,Wunderground v.1.15,2013-01-25 10:52:00,
2013-01-25 02:57:00,43.4,42.3,30.07,SSE,168,2.0,8.0,96,0.00,,,0.05,0,Wunderground v.1.15,2013-01-25 10:57:00,
2013-01-25 03:02:00,43.4,42.3,30.07,SSE,166,2.0,4.0,96,0.00,,,0.05,0,Wunderground v.1.15,2013-01-25 11:02:00,
2013-01-25 03:07:00,43.4,42.3,30.07,SSE,161,3.0,4.0,96,0.00,,,0.05,0,Wunderground v.1.15,2013-01-25 11:07:00,
2013-01-25 03:12:00,43.3,42.2,30.07,SSE,162,2.0,3.0,96,0.00,,,0.05,0,Wunderground v.1.15,2013-01-25 11:12:00,
2013-01-25 03:17:00,43.4,42.6,30.07,SSE,161,1.0,3.0,97,0.00,,,0.05,0,Wunderground v.1.15,2013-01-25 11:17:00,
2013-01-25 03:22:00,43.4,42.6,30.07,SSE,161,0.0,2.0,97,0.00,,,0.05,0,Wunderground v.1.15,2013-01-25 11:22:00,
2013-01-25 03:27:00,43.5,42.7,30.07,SSE,161,1.0,2.0,97,0.00,,,0.05,0,Wunderground v.1.15,2013-01-25 11:27:00,
2013-01-25 03:32:00,43.6,42.8,30.07,SSE,162,1.0,3.0,97,0.00,,,0.05,0,Wunderground v.1.15,2013-01-25 11:32:00,
2013-01-25 03:37:00,43.7,42.9,30.07,SSE,162,1.0,3.0,97,0.00,,,0.05,0,Wunderground v.1.15,2013-01-25 11:37:00,
2013-01-25 03:42:00,43.8,43.0,30.07,South,180,3.0,4.0,97,0.00,,,0.05,0,Wunderground v.1.15,2013-01-25 11:42:00,
2013-01-25 03:47:00,43.8,43.0,30.07,WSW,237,2.0,4.0,97,0.00,,,0.05,0,Wunderground v.1.15,2013-01-25 11:47:00,
2013-01-25 03:52:00,43.8,43.0,30.07,SSW,205,0.0,3.0,97,0.00,,,0.05,0,Wunderground v.1.15,2013-01-25 11:52:00,
2013-01-25 03:57:00,43.8,43.0,30.07,South,188,0.0,4.0,97,0.00,,,0.05,0,Wunderground v.1.15,2013-01-25 11:57:00,
2013-01-25 04:02:00,43.8,43.0,30.07,SSW,192,0.0,2.0,97,0.00,,,0.05,0,Wunderground v.1.15,2013-01-25 12:02:00,
2013-01-25 04:07:00,43.8,43.0,30.06,South,191,1.0,2.0,97,0.00,,,0.05,0,Wunderground v.1.15,2013-01-25 12:07:00,
2013-01-25 04:12:00,43.8,43.0,30.06,South,191,0.0,1.0,97,0.00,,,0.05,0,Wunderground v.1.15,2013-01-25 12:12:00,
2013-01-25 04:17:00,43.9,43.1,30.06,South,191,0.0,1.0,97,0.00,,,0.05,0,Wunderground v.1.15,2013-01-25 12:17:00,
2013-01-25 04:22:00,43.9,43.1,30.06,SSW,192,0.0,0.0,97,0.00,,,0.05,0,Wunderground v.1.15,2013-01-25 12:22:00,
2013-01-25 04:27:00,43.9,43.1,30.06,South,191,0.0,1.0,97,0.00,,,0.05,0,Wunderground v.1.15,2013-01-25 12:27:00,
2013-01-25 04:32:00,44.0,43.2,30.06,West,269,5.0,5.0,97,0.00,,,0.05,0,Wunderground v.1.15,2013-01-25 12:32:00,
2013-01-25 04:37:00,44.3,43.5,30.06,SW,236,1.0,6.0,97,0.00,,,0.05,0,Wunderground v.1.15,2013-01-25 12:37:00,
2013-01-25 04:42:00,44.5,43.7,30.06,WSW,240,3.0,7.0,97,0.00,,,0.05,0,Wunderground v.1.15,2013-01-25 12:42:00,
2013-01-25 04:47:00,44.7,43.9,30.06,WSW,244,1.0,7.0,97,0.00,,,0.05,0,Wunderground v.1.15,2013-01-25 12:47:00,
2013-01-25 04:52:00,44.9,44.1,30.06,West,272,4.0,5.0,97,0.00,,,0.05,0,Wunderground v.1.15,2013-01-25 12:52:00,
2013-01-25 04:57:00,45.0,44.2,30.06,WNW,286,2.0,6.0,97,0.00,,,0.05,0,Wunderground v.1.15,2013-01-25 12:57:00,
2013-01-25 05:02:00,45.1,44.3,30.06,WNW,287,3.0,8.0,97,0.00,,,0.05,0,Wunderground v.1.15,2013-01-25 13:02:00,
2013-01-25 05:07:00,45.3,44.5,30.06,West,271,2.0,8.0,97,0.00,,,0.05,0,Wunderground v.1.15,2013-01-25 13:07:00,
2013-01-25 05:12:00,45.4,44.3,30.06,West,273,4.0,5.0,96,0.00,,,0.05,0,Wunderground v.1.15,2013-01-25 13:12:00,
2013-01-25 05:17:00,45.5,44.4,30.06,West,271,5.0,5.0,96,0.00,,,0.05,0,Wunderground v.1.15,2013-01-25 13:17:00,
2013-01-25 05:22:00,45.6,44.5,30.06,WSW,254,4.0,7.0,96,0.00,,,0.05,0,Wunderground v.1.15,2013-01-25 13:22:00,
2013-01-25 05:27:00,45.6,44.5,30.06,West,269,5.0,7.0,96,0.00,,,0.05,0,Wunderground v.1.15,2013-01-25 13:27:00,
2013-01-25 05:32:00,45.7,44.6,30.06,West,268,6.0,7.0,96,0.00,,,0.05,0,Wunderground v.1.15,2013-01-25 13:32:00,
2013-01-25 05:37:00,45.8,44.4,30.06,West,270,6.0,7.0,95,0.00,,,0.05,0,Wunderground v.1.15,2013-01-25 13:37:00,
2013-01-25 05:42:00,45.8,44.4,30.06,West,275,5.0,7.0,95,0.00,,,0.05,0,Wunderground v.1.15,2013-01-25 13:42:00,
2013-01-25 05:47:00,45.8,44.4,30.06,West,271,4.0,9.0,95,0.00,,,0.05,0,Wunderground v.1.15,2013-01-25 13:47:00,
2013-01-25 05:52:00,45.9,44.5,30.06,WNW,285,6.0,8.0,95,0.00,,,0.05,0,Wunderground v.1.15,2013-01-25 13:52:00,
2013-01-25 05:57:00,46.0,44.6,30.06,WSW,246,5.0,12.0,95,0.00,,,0.05,0,Wunderground v.1.15,2013-01-25 13:57:00,
2013-01-25 06:02:00,46.0,44.4,30.06,WSW,258,6.0,10.0,94,0.00,,,0.05,0,Wunderground v.1.15,2013-01-25 14:02:00,
2013-01-25 06:07:00,46.2,44.6,30.06,WSW,247,6.0,10.0,94,0.00,,,0.05,0,Wunderground v.1.15,2013-01-25 14:07:00,
2013-01-25 06:12:00,46.2,44.3,30.06,West,265,6.0,10.0,93,0.00,,,0.05,0,Wunderground v.1.15,2013-01-25 14:12:00,
2013-01-25 06:17:00,46.2,44.3,30.06,SW,225,4.0,10.0,93,0.00,,,0.05,0,Wunderground v.1.15,2013-01-25 14:17:00,
2013-01-25 06:22:00,46.3,44.4,30.06,WSW,254,6.0,9.0,93,0.00,,,0.05,0,Wunderground v.1.15,2013-01-25 14:22:00,
2013-01-25 06:27:00,46.3,44.4,30.06,West,264,7.0,10.0,93,0.00,,,0.05,0,Wunderground v.1.15,2013-01-25 14:27:00,
2013-01-25 06:32:00,46.4,44.2,30.06,WSW,243,6.0,13.0,92,0.00,,,0.05,0,Wunderground v.1.15,2013-01-25 14:32:00,
2013-01-25 06:37:00,46.5,44.3,30.06,West,273,10.0,13.0,92,0.00,,,0.05,0,Wunderground v.1.15,2013-01-25 14:37:00,
2013-01-25 06:42:00,46.5,44.3,30.06,WSW,242,5.0,11.0,92,0.00,,,0.05,0,Wunderground v.1.15,2013-01-25 14:42:00,
2013-01-25 06:47:00,46.6,44.1,30.06,WSW,255,4.0,16.0,91,0.00,,,0.05,0,Wunderground v.1.15,2013-01-25 14:47:00,
2013-01-25 06:52:00,46.7,44.2,30.06,West,269,9.0,14.0,91,0.00,,,0.05,0,Wunderground v.1.15,2013-01-25 14:52:00,
2013-01-25 06:57:00,46.7,44.2,30.06,SW,220,8.0,14.0,91,0.00,,,0.05,0,Wunderground v.1.15,2013-01-25 14:57:00,
2013-01-25 07:02:00,46.7,44.2,30.06,WSW,245,4.0,13.0,91,0.00,,,0.05,0,Wunderground v.1.15,2013-01-25 15:02:00,
2013-01-25 07:07:00,46.7,44.2,30.06,WSW,251,5.0,13.0,91,0.00,,,0.05,0,Wunderground v.1.15,2013-01-25 15:07:00,
2013-01-25 07:12:00,46.7,44.2,30.06,WSW,257,12.0,13.0,91,0.00,,,0.05,0,Wunderground v.1.15,2013-01-25 15:12:00,
2013-01-25 07:17:00,46.7,44.2,30.06,West,259,3.0,13.0,91,0.00,,,0.05,0,Wunderground v.1.15,2013-01-25 15:17:00,
2013-01-25 07:22:00,46.7,44.2,30.06,WSW,252,6.0,8.0,91,0.00,,,0.05,0,Wunderground v.1.15,2013-01-25 15:22:00,
2013-01-25 07:27:00,46.7,43.9,30.06,SW,219,6.0,14.0,90,0.00,,,0.05,0,Wunderground v.1.15,2013-01-25 15:27:00,
2013-01-25 07:32:00,46.8,44.0,30.06,West,271,5.0,11.0,90,0.00,,,0.05,0,Wunderground v.1.15,2013-01-25 15:32:00,
2013-01-25 07:37:00,46.8,44.0,30.06,WSW,246,6.0,13.0,90,0.00,,,0.05,0,Wunderground v.1.15,2013-01-25 15:37:00,
2013-01-25 07:42:00,46.8,44.0,30.06,West,260,7.0,12.0,90,0.00,,,0.05,0,Wunderground v.1.15,2013-01-25 15:42:00,
2013-01-25 07:47:00,46.8,44.0,30.06,West,275,4.0,12.0,90,0.00,,,0.05,0,Wunderground v.1.15,2013-01-25 15:47:00,
2013-01-25 07:52:00,46.8,44.0,30.06,West,264,6.0,10.0,90,0.00,,,0.05,5,Wunderground v.1.15,2013-01-25 15:52:00,
2013-01-25 07:57:00,46.7,43.9,30.06,WNW,301,6.0,10.0,90,0.00,,,0.05,7,Wunderground v.1.15,2013-01-25 15:57:00,
2013-01-25 08:02:00,46.8,44.0,30.06,West,264,3.0,6.0,90,0.00,,,0.05,9,Wunderground v.1.15,2013-01-25 16:02:00,
2013-01-25 08:07:00,46.8,44.0,30.06,NW,309,2.0,11.0,90,0.00,,,0.05,12,Wunderground v.1.15,2013-01-25 16:07:00,
2013-01-25 08:12:00,46.8,44.0,30.06,West,271,3.0,9.0,90,0.00,,,0.05,18,Wunderground v.1.15,2013-01-25 16:12:00,
2013-01-25 08:17:00,46.8,44.0,30.06,West,274,5.0,12.0,90,0.00,,,0.05,16,Wunderground v.1.15,2013-01-25 16:17:00,
2013-01-25 08:22:00,46.9,44.1,30.06,NW,317,5.0,6.0,90,0.00,,,0.05,14,Wunderground v.1.15,2013-01-25 16:22:00,
2013-01-25 08:27:00,46.9,44.1,30.06,West,278,3.0,9.0,90,0.00,,,0.05,16,Wunderground v.1.15,2013-01-25 16:27:00,
2013-01-25 08:32:00,47.0,44.2,30.06,West,260,5.0,10.0,90,0.00,,,0.05,21,Wunderground v.1.15,2013-01-25 16:32:00,
2013-01-25 08:37:00,47.0,43.9,30.06,West,264,5.0,10.0,89,0.00,,,0.05,14,Wunderground v.1.15,2013-01-25 16:37:00,
2013-01-25 08:42:00,47.0,43.9,30.06,WSW,248,4.0,8.0,89,0.00,,,0.05,19,Wunderground v.1.15,2013-01-25 16:42:00,
2013-01-25 08:47:00,47.0,43.9,30.06,WSW,257,8.0,13.0,89,0.00,,,0.05,14,Wunderground v.1.15,2013-01-25 16:47:00,
2013-01-25 08:52:00,47.0,43.9,30.06,SW,232,6.0,10.0,89,0.00,,,0.05,18,Wunderground v.1.15,2013-01-25 16:52:00,
2013-01-25 08:57:00,47.0,43.9,30.06,WNW,302,6.0,10.0,89,0.00,,,0.05,32,Wunderground v.1.15,2013-01-25 16:57:00,
2013-01-25 09:02:00,47.0,43.9,30.06,West,277,8.0,10.0,89,0.00,,,0.05,54,Wunderground v.1.15,2013-01-25 17:02:00,
2013-01-25 09:07:00,47.1,43.7,30.06,West,268,8.0,13.0,88,0.00,,,0.05,84,Wunderground v.1.15,2013-01-25 17:07:00,
2013-01-25 09:12:00,47.3,43.9,30.06,WNW,299,3.0,9.0,88,0.00,,,0.05,97,Wunderground v.1.15,2013-01-25 17:12:00,
2013-01-25 09:17:00,47.4,44.0,30.06,NW,313,4.0,9.0,88,0.00,,,0.05,84,Wunderground v.1.15,2013-01-25 17:17:00,
2013-01-25 09:22:00,47.4,44.0,30.06,WSW,258,5.0,7.0,88,0.00,,,0.05,77,Wunderground v.1.15,2013-01-25 17:22:00,
2013-01-25 09:27:00,47.6,44.2,30.06,West,269,11.0,11.0,88,0.00,,,0.05,137,Wunderground v.1.15,2013-01-25 17:27:00,
2013-01-25 09:32:00,48.1,44.4,30.07,NNW,333,4.0,7.0,87,0.00,,,0.05,202,Wunderground v.1.15,2013-01-25 17:32:00,
2013-01-25 09:37:00,48.5,44.5,30.07,NW,316,1.0,7.0,86,0.00,,,0.05,190,Wunderground v.1.15,2013-01-25 17:37:00,
2013-01-25 09:42:00,49.0,45.0,30.07,NNW,327,2.0,12.0,86,0.00,,,0.05,213,Wunderground v.1.15,2013-01-25 17:42:00,
2013-01-25 09:47:00,49.3,45.0,30.06,SW,218,5.0,12.0,85,0.00,,,0.05,109,Wunderground v.1.15,2013-01-25 17:47:00,
2013-01-25 09:52:00,48.7,44.4,30.07,West,280,3.0,7.0,85,0.00,,,0.05,109,Wunderground v.1.15,2013-01-25 17:52:00,
2013-01-25 09:57:00,48.5,44.2,30.07,West,277,5.0,9.0,85,0.00,,,0.05,134,Wunderground v.1.15,2013-01-25 17:57:00,
2013-01-25 10:02:00,48.4,44.4,30.06,WNW,298,1.0,4.0,86,0.00,,,0.05,127,Wunderground v.1.15,2013-01-25 18:02:00,
2013-01-25 10:07:00,48.6,44.6,30.07,West,261,2.0,8.0,86,0.00,,,0.05,162,Wunderground v.1.15,2013-01-25 18:07:00,
2013-01-25 10:12:00,48.6,44.6,30.07,NW,308,2.0,4.0,86,0.00,,,0.05,139,Wunderground v.1.15,2013-01-25 18:12:00,
2013-01-25 10:17:00,48.7,44.7,30.06,West,272,3.0,7.0,86,0.00,,,0.05,127,Wunderground v.1.15,2013-01-25 18:17:00,
2013-01-25 10:22:00,48.7,44.4,30.06,West,267,3.0,6.0,85,0.00,,,0.05,116,Wunderground v.1.15,2013-01-25 18:22:00,
2013-01-25 10:27:00,48.6,44.0,30.07,WSW,250,5.0,7.0,84,0.00,,,0.05,111,Wunderground v.1.15,2013-01-25 18:27:00,
2013-01-25 10:32:00,48.4,43.8,30.07,West,271,7.0,7.0,84,0.00,,,0.05,134,Wunderground v.1.15,2013-01-25 18:32:00,
2013-01-25 10:37:00,48.3,44.0,30.07,West,263,4.0,8.0,85,0.00,,,0.05,125,Wunderground v.1.15,2013-01-25 18:37:00,
2013-01-25 10:42:00,48.3,44.0,30.07,WNW,294,6.0,6.0,85,0.00,,,0.05,135,Wunderground v.1.15,2013-01-25 18:42:00,
2013-01-25 10:47:00,48.3,44.3,30.06,WNW,284,3.0,6.0,86,0.00,,,0.05,135,Wunderground v.1.15,2013-01-25 18:47:00,
2013-01-25 10:52:00,48.2,44.5,30.06,West,273,2.0,5.0,87,0.00,,,0.05,118,Wunderground v.1.15,2013-01-25 18:52:00,
2013-01-25 10:57:00,48.3,44.6,30.06,WNW,290,2.0,8.0,87,0.00,,,0.05,130,Wunderground v.1.15,2013-01-25 18:57:00,
2013-01-25 11:02:00,48.2,44.5,30.06,WNW,286,6.0,7.0,87,0.00,,,0.05,141,Wunderground v.1.15,2013-01-25 19:02:00,
2013-01-25 11:06:00,48.3,44.6,30.06,West,278,2.0,7.0,87,0.00,,,0.05,132,Wunderground v.1.15,2013-01-25 19:06:00,
2013-01-25 11:11:00,48.2,44.5,30.06,West,277,3.0,6.0,87,0.00,,,0.05,155,Wunderground v.1.15,2013-01-25 19:11:00,
2013-01-25 11:16:00,48.4,44.7,30.06,West,281,1.0,6.0,87,0.00,,,0.05,183,Wunderground v.1.15,2013-01-25 19:16:00,
2013-01-25 11:22:00,48.7,45.0,30.06,WNW,299,3.0,3.0,87,0.00,,,0.05,144,Wunderground v.1.15,2013-01-25 19:22:00,
2013-01-25 11:26:00,48.5,44.8,30.06,West,273,1.0,5.0,87,0.00,,,0.05,141,Wunderground v.1.15,2013-01-25 19:26:00,
2013-01-25 11:31:00,48.4,44.4,30.05,SW,219,4.0,4.0,86,0.00,,,0.05,149,Wunderground v.1.15,2013-01-25 19:31:00,
2013-01-25 11:36:00,48.4,44.7,30.05,WSW,243,0.0,4.0,87,0.00,,,0.05,158,Wunderground v.1.15,2013-01-25 19:36:00,
2013-01-25 11:41:00,48.8,44.8,30.05,WSW,244,3.0,5.0,86,0.00,,,0.05,151,Wunderground v.1.15,2013-01-25 19:41:00,
2013-01-25 11:46:00,48.7,44.4,30.05,West,265,2.0,5.0,85,0.00,,,0.05,128,Wunderground v.1.15,2013-01-25 19:46:00,
2013-01-25 11:51:00,48.8,44.5,30.04,WSW,256,3.0,3.0,85,0.00,,,0.05,134,Wunderground v.1.15,2013-01-25 19:51:00,
2013-01-25 11:56:00,48.8,44.5,30.04,WSW,256,1.0,3.0,85,0.00,,,0.05,146,Wunderground v.1.15,2013-01-25 19:56:00,
2013-01-25 12:01:00,48.9,44.6,30.04,WSW,255,2.0,3.0,85,0.00,,,0.05,139,Wunderground v.1.15,2013-01-25 20:01:00,
2013-01-25 12:06:00,49.0,44.7,30.03,West,266,2.0,4.0,85,0.00,,,0.05,176,Wunderground v.1.15,2013-01-25 20:06:00,
2013-01-25 12:11:00,49.1,44.8,30.03,West,266,0.0,2.0,85,0.00,,,0.05,142,Wunderground v.1.15,2013-01-25 20:11:00,
2013-01-25 12:16:00,49.5,45.2,30.03,West,266,0.0,2.0,85,0.00,,,0.05,125,Wunderground v.1.15,2013-01-25 20:16:00,
2013-01-25 12:21:00,49.8,44.8,30.03,West,275,1.0,3.0,83,0.00,,,0.05,90,Wunderground v.1.15,2013-01-25 20:21:00,
2013-01-25 12:26:00,49.8,44.8,30.03,West,271,4.0,6.0,83,0.00,,,0.05,88,Wunderground v.1.15,2013-01-25 20:26:00,
2013-01-25 12:31:00,49.8,44.8,30.02,West,265,1.0,2.0,83,0.00,,,0.05,174,Wunderground v.1.15,2013-01-25 20:31:00,
2013-01-25 12:36:00,50.3,45.0,30.02,WNW,290,1.0,4.0,82,0.00,,,0.05,202,Wunderground v.1.15,2013-01-25 20:36:00,
2013-01-25 12:41:00,50.8,44.9,30.02,West,274,3.0,4.0,80,0.00,,,0.05,207,Wunderground v.1.15,2013-01-25 20:41:00,
2013-01-25 12:46:00,50.6,45.0,30.02,WSW,252,3.0,4.0,81,0.00,,,0.05,246,Wunderground v.1.15,2013-01-25 20:46:00,
2013-01-25 12:51:00,50.6,44.7,30.01,WSW,258,5.0,7.0,80,0.00,,,0.05,304,Wunderground v.1.15,2013-01-25 20:51:00,
2013-01-25 12:56:00,50.3,44.0,30.01,West,270,5.0,9.0,79,0.00,,,0.05,207,Wunderground v.1.15,2013-01-25 20:56:00,
2013-01-25 13:01:00,49.9,44.3,30.01,West,264,3.0,7.0,81,0.00,,,0.05,250,Wunderground v.1.15,2013-01-25 21:01:00,
2013-01-25 13:06:00,50.3,44.4,30.01,WSW,258,3.0,7.0,80,0.00,,,0.05,234,Wunderground v.1.15,2013-01-25 21:06:00,
2013-01-25 13:11:00,50.4,44.8,30.01,WSW,255,4.0,5.0,81,0.00,,,0.05,225,Wunderground v.1.15,2013-01-25 21:11:00,
2013-01-25 13:16:00,50.6,44.3,30.01,West,265,3.0,10.0,79,0.00,,,0.05,345,Wunderground v.1.15,2013-01-25 21:16:00,
2013-01-25 13:21:00,51.0,44.4,30.01,WNW,294,1.0,5.0,78,0.00,,,0.05,418,Wunderground v.1.15,2013-01-25 21:21:00,
2013-01-25 13:26:00,51.4,45.1,30.00,West,269,7.0,7.0,79,0.00,,,0.05,418,Wunderground v.1.15,2013-01-25 21:26:00,
2013-01-25 13:31:00,51.4,44.4,30.00,West,263,4.0,6.0,77,0.00,,,0.05,223,Wunderground v.1.15,2013-01-25 21:31:00,
2013-01-25 13:36:00,51.4,44.8,30.00,WSW,256,3.0,7.0,78,0.00,,,0.05,338,Wunderground v.1.15,2013-01-25 21:36:00,
2013-01-25 13:41:00,51.5,44.5,30.00,WSW,252,8.0,8.0,77,0.00,,,0.05,466,Wunderground v.1.15,2013-01-25 21:41:00,
2013-01-25 13:46:00,51.1,44.5,30.00,West,264,6.0,8.0,78,0.00,,,0.05,309,Wunderground v.1.15,2013-01-25 21:46:00,
2013-01-25 13:51:00,51.3,45.0,30.00,WSW,253,6.0,8.0,79,0.00,,,0.05,373,Wunderground v.1.15,2013-01-25 21:51:00,
2013-01-25 13:56:00,51.4,44.8,30.00,West,277,4.0,9.0,78,0.00,,,0.05,374,Wunderground v.1.15,2013-01-25 21:56:00,
2013-01-25 14:01:00,51.3,44.3,30.00,WSW,238,5.0,7.0,77,0.00,,,0.05,146,Wunderground v.1.15,2013-01-25 22:01:00,
2013-01-25 14:06:00,51.5,44.5,29.99,West,270,5.0,8.0,77,0.00,,,0.05,309,Wunderground v.1.15,2013-01-25 22:06:00,
2013-01-25 14:11:00,51.9,44.6,29.99,West,261,4.0,5.0,76,0.00,,,0.05,306,Wunderground v.1.15,2013-01-25 22:11:00,
2013-01-25 14:16:00,51.9,43.9,29.99,NW,309,2.0,8.0,74,0.00,,,0.05,315,Wunderground v.1.15,2013-01-25 22:16:00,
2013-01-25 14:21:00,52.5,44.8,29.99,SW,234,3.0,4.0,75,0.00,,,0.05,272,Wunderground v.1.15,2013-01-25 22:21:00,
2013-01-25 14:26:00,52.5,44.4,29.99,NW,311,3.0,6.0,74,0.00,,,0.05,241,Wunderground v.1.15,2013-01-25 22:26:00,
2013-01-25 14:31:00,52.2,43.4,29.99,West,271,4.0,4.0,72,0.00,,,0.05,225,Wunderground v.1.15,2013-01-25 22:31:00,
2013-01-25 14:36:00,52.1,43.7,29.98,WSW,251,5.0,6.0,73,0.00,,,0.05,214,Wunderground v.1.15,2013-01-25 22:36:00,
2013-01-25 14:41:00,51.7,43.3,29.98,West,267,5.0,6.0,73,0.00,,,0.05,193,Wunderground v.1.15,2013-01-25 22:41:00,
2013-01-25 14:46:00,51.6,43.2,29.98,WNW,299,0.0,6.0,73,0.00,,,0.05,190,Wunderground v.1.15,2013-01-25 22:46:00,
2013-01-25 14:51:00,51.9,43.5,29.98,West,259,3.0,4.0,73,0.00,,,0.05,183,Wunderground v.1.15,2013-01-25 22:51:00,
2013-01-25 14:56:00,51.5,43.1,29.98,West,260,3.0,5.0,73,0.00,,,0.05,171,Wunderground v.1.15,2013-01-25 22:56:00,
2013-01-25 15:01:00,51.4,43.4,29.98,West,265,3.0,4.0,74,0.00,,,0.05,163,Wunderground v.1.15,2013-01-25 23:01:00,
2013-01-25 15:06:00,51.0,43.4,29.98,West,263,4.0,5.0,75,0.00,,,0.05,151,Wunderground v.1.15,2013-01-25 23:06:00,
2013-01-25 15:11:00,51.1,43.4,29.97,WSW,250,3.0,4.0,75,0.00,,,0.05,141,Wunderground v.1.15,2013-01-25 23:11:00,
2013-01-25 15:16:00,51.3,43.6,29.97,WSW,254,3.0,5.0,75,0.00,,,0.05,130,Wunderground v.1.15,2013-01-25 23:16:00,
2013-01-25 15:21:00,51.3,43.3,29.97,West,259,2.0,3.0,74,0.00,,,0.05,120,Wunderground v.1.15,2013-01-25 23:21:00,
2013-01-25 15:26:00,51.4,43.4,29.97,West,261,4.0,4.0,74,0.00,,,0.05,113,Wunderground v.1.15,2013-01-25 23:26:00,
2013-01-25 15:31:00,51.3,43.3,29.97,West,275,4.0,5.0,74,0.00,,,0.05,105,Wunderground v.1.15,2013-01-25 23:31:00,
2013-01-25 15:36:00,51.4,43.4,29.98,West,265,3.0,5.0,74,0.00,,,0.05,105,Wunderground v.1.15,2013-01-25 23:36:00,
2013-01-25 15:41:00,51.5,43.1,29.97,West,266,3.0,5.0,73,0.00,,,0.05,83,Wunderground v.1.15,2013-01-25 23:41:00,
2013-01-25 15:46:00,51.6,43.2,29.97,WSW,241,2.0,5.0,73,0.00,,,0.05,77,Wunderground v.1.15,2013-01-25 23:46:00,
2013-01-25 15:51:00,51.5,43.1,29.98,SW,234,4.0,7.0,73,0.00,,,0.05,67,Wunderground v.1.15,2013-01-25 23:51:00,
2013-01-25 15:56:00,51.1,42.7,29.97,WSW,254,3.0,8.0,73,0.00,,,0.05,60,Wunderground v.1.15,2013-01-25 23:56:00,
2013-01-25 16:01:00,51.0,42.6,29.97,West,269,2.0,4.0,73,0.00,,,0.05,46,Wunderground v.1.15,2013-01-26 00:01:00,
2013-01-25 16:06:00,50.9,42.9,29.97,West,267,5.0,5.0,74,0.00,,,0.05,39,Wunderground v.1.15,2013-01-26 00:06:00,
2013-01-25 16:11:00,50.9,42.6,29.97,West,274,2.0,4.0,73,0.00,,,0.05,30,Wunderground v.1.15,2013-01-26 00:11:00,
2013-01-25 16:16:00,50.9,42.6,29.97,WSW,254,3.0,4.0,73,0.00,,,0.05,28,Wunderground v.1.15,2013-01-26 00:16:00,
2013-01-25 16:21:00,50.7,42.7,29.97,WNW,289,1.0,2.0,74,0.00,,,0.05,23,Wunderground v.1.15,2013-01-26 00:21:00,
2013-01-25 16:26:00,50.5,42.5,29.97,WSW,249,1.0,3.0,74,0.00,,,0.05,18,Wunderground v.1.15,2013-01-26 00:26:00,
2013-01-25 16:31:00,50.4,42.4,29.97,West,276,1.0,3.0,74,0.00,,,0.05,16,Wunderground v.1.15,2013-01-26 00:31:00,
2013-01-25 16:36:00,50.4,42.8,29.97,WNW,294,3.0,3.0,75,0.00,,,0.05,14,Wunderground v.1.15,2013-01-26 00:36:00,
2013-01-25 16:41:00,50.3,42.7,29.98,WNW,294,1.0,2.0,75,0.00,,,0.05,12,Wunderground v.1.15,2013-01-26 00:41:00,
2013-01-25 16:46:00,50.1,42.5,29.97,WNW,294,0.0,3.0,75,0.00,,,0.05,12,Wunderground v.1.15,2013-01-26 00:46:00,
2013-01-25 16:51:00,50.0,42.4,29.97,WNW,294,1.0,3.0,75,0.00,,,0.05,11,Wunderground v.1.15,2013-01-26 00:51:00,
2013-01-25 16:56:00,49.8,42.2,29.97,WNW,285,1.0,4.0,75,0.00,,,0.05,5,Wunderground v.1.15,2013-01-26 00:56:00,
2013-01-25 17:01:00,49.7,42.4,29.97,West,273,1.0,3.0,76,0.00,,,0.05,0,Wunderground v.1.15,2013-01-26 01:01:00,
2013-01-25 17:06:00,49.5,42.6,29.97,WSW,254,1.0,3.0,77,0.00,,,0.05,0,Wunderground v.1.15,2013-01-26 01:06:00,
2013-01-25 17:11:00,49.2,42.6,29.97,WSW,254,1.0,2.0,78,0.00,,,0.05,0,Wunderground v.1.15,2013-01-26 01:11:00,
2013-01-25 17:16:00,49.0,42.4,29.97,West,261,1.0,3.0,78,0.00,,,0.05,0,Wunderground v.1.15,2013-01-26 01:16:00,
2013-01-25 17:21:00,48.8,42.6,29.97,West,263,2.0,2.0,79,0.00,,,0.05,0,Wunderground v.1.15,2013-01-26 01:21:00,
2013-01-25 17:26:00,48.6,42.7,29.97,West,273,5.0,7.0,80,0.00,,,0.05,0,Wunderground v.1.15,2013-01-26 01:26:00,
2013-01-25 17:31:00,48.6,42.7,29.97,West,263,3.0,4.0,80,0.00,,,0.05,0,Wunderground v.1.15,2013-01-26 01:31:00,
2013-01-25 17:36:00,48.5,42.6,29.97,West,268,4.0,4.0,80,0.00,,,0.05,0,Wunderground v.1.15,2013-01-26 01:36:00,
2013-01-25 17:41:00,48.5,42.6,29.97,West,269,1.0,2.0,80,0.00,,,0.05,0,Wunderground v.1.15,2013-01-26 01:41:00,
2013-01-25 17:46:00,48.4,42.5,29.96,West,269,0.0,2.0,80,0.00,,,0.05,0,Wunderground v.1.15,2013-01-26 01:46:00,
2013-01-25 17:51:00,48.3,42.4,29.97,West,269,0.0,0.0,80,0.00,,,0.05,0,Wunderground v.1.15,2013-01-26 01:51:00,
2013-01-25 17:56:00,48.2,42.3,29.97,West,269,0.0,0.0,80,0.00,,,0.05,0,Wunderground v.1.15,2013-01-26 01:56:00,
2013-01-25 18:01:00,47.8,41.9,29.97,SW,219,2.0,2.0,80,0.00,,,0.05,0,Wunderground v.1.15,2013-01-26 02:01:00,
2013-01-25 18:06:00,47.4,41.9,29.97,SSW,211,0.0,3.0,81,0.00,,,0.05,0,Wunderground v.1.15,2013-01-26 02:06:00,
2013-01-25 18:11:00,47.1,41.9,29.96,SSW,211,1.0,2.0,82,0.00,,,0.05,0,Wunderground v.1.15,2013-01-26 02:11:00,
2013-01-25 18:16:00,46.8,41.9,29.96,SSW,209,0.0,3.0,83,0.00,,,0.05,0,Wunderground v.1.15,2013-01-26 02:16:00,
2013-01-25 18:21:00,46.6,41.7,29.96,SSW,209,0.0,2.0,83,0.00,,,0.05,0,Wunderground v.1.15,2013-01-26 02:21:00,
2013-01-25 18:26:00,46.4,41.8,29.96,SW,235,5.0,5.0,84,0.00,,,0.05,0,Wunderground v.1.15,2013-01-26 02:26:00,
2013-01-25 18:31:00,46.5,42.2,29.96,SW,221,2.0,5.0,85,0.00,,,0.05,0,Wunderground v.1.15,2013-01-26 02:31:00,
2013-01-25 18:36:00,46.6,42.3,29.96,SW,215,2.0,6.0,85,0.00,,,0.05,0,Wunderground v.1.15,2013-01-26 02:36:00,
2013-01-25 18:41:00,46.5,41.9,29.96,SW,216,3.0,3.0,84,0.00,,,0.05,0,Wunderground v.1.15,2013-01-26 02:41:00,
2013-01-25 18:46:00,46.5,42.2,29.96,West,272,5.0,5.0,85,0.00,,,0.05,0,Wunderground v.1.15,2013-01-26 02:46:00,
2013-01-25 18:51:00,46.7,42.4,29.96,SW,233,5.0,6.0,85,0.00,,,0.05,0,Wunderground v.1.15,2013-01-26 02:51:00,
2013-01-25 18:56:00,46.9,42.3,29.96,SW,236,3.0,6.0,84,0.00,,,0.05,0,Wunderground v.1.15,2013-01-26 02:56:00,
2013-01-25 19:01:00,47.0,42.4,29.96,WSW,253,6.0,7.0,84,0.00,,,0.05,0,Wunderground v.1.15,2013-01-26 03:01:00,
2013-01-25 19:06:00,47.1,42.5,29.96,WSW,247,1.0,7.0,84,0.00,,,0.05,0,Wunderground v.1.15,2013-01-26 03:06:00,
2013-01-25 19:11:00,47.1,42.5,29.96,WSW,258,0.0,2.0,84,0.00,,,0.05,0,Wunderground v.1.15,2013-01-26 03:11:00,
2013-01-25 19:16:00,47.1,42.2,29.96,WSW,258,0.0,2.0,83,0.00,,,0.05,0,Wunderground v.1.15,2013-01-26 03:16:00,
2013-01-25 19:21:00,46.9,42.0,29.96,WSW,258,0.0,2.0,83,0.00,,,0.05,0,Wunderground v.1.15,2013-01-26 03:21:00,
2013-01-25 19:26:00,46.8,41.9,29.96,WSW,258,0.0,2.0,83,0.00,,,0.05,0,Wunderground v.1.15,2013-01-26 03:26:00,
2013-01-25 19:31:00,46.6,42.0,29.96,WSW,256,1.0,2.0,84,0.00,,,0.05,0,Wunderground v.1.15,2013-01-26 03:31:00,
2013-01-25 19:36:00,46.4,41.8,29.96,WSW,250,4.0,7.0,84,0.00,,,0.05,0,Wunderground v.1.15,2013-01-26 03:36:00,
2013-01-25 19:41:00,46.6,42.0,29.96,West,279,9.0,12.0,84,0.00,,,0.05,0,Wunderground v.1.15,2013-01-26 03:41:00,
2013-01-25 19:46:00,47.0,41.8,29.96,SW,221,7.0,12.0,82,0.00,,,0.05,0,Wunderground v.1.15,2013-01-26 03:46:00,
2013-01-25 19:51:00,47.3,41.4,29.96,West,276,7.0,10.0,80,0.00,,,0.05,0,Wunderground v.1.15,2013-01-26 03:51:00,
2013-01-25 19:56:00,47.3,41.4,29.96,WSW,258,6.0,10.0,80,0.00,,,0.05,0,Wunderground v.1.15,2013-01-26 03:56:00,
2013-01-25 20:01:00,47.3,41.4,29.96,West,268,5.0,9.0,80,0.00,,,0.05,0,Wunderground v.1.15,2013-01-26 04:01:00,
2013-01-25 20:06:00,47.2,41.3,29.95,West,266,6.0,9.0,80,0.00,,,0.05,0,Wunderground v.1.15,2013-01-26 04:06:00,
2013-01-25 20:11:00,47.0,41.1,29.96,West,261,6.0,6.0,80,0.00,,,0.05,0,Wunderground v.1.15,2013-01-26 04:11:00,
2013-01-25 20:16:00,46.9,41.4,29.96,WSW,258,9.0,11.0,81,0.00,,,0.05,0,Wunderground v.1.15,2013-01-26 04:16:00,
2013-01-25 20:21:00,46.8,41.3,29.96,WSW,258,6.0,6.0,81,0.00,,,0.05,0,Wunderground v.1.15,2013-01-26 04:21:00,
2013-01-25 20:26:00,46.7,41.2,29.96,West,259,6.0,10.0,81,0.00,,,0.05,0,Wunderground v.1.15,2013-01-26 04:26:00,
2013-01-25 20:31:00,46.6,41.1,29.96,West,267,5.0,8.0,81,0.00,,,0.05,0,Wunderground v.1.15,2013-01-26 04:31:00,
2013-01-25 20:36:00,46.6,41.1,29.96,SW,232,5.0,11.0,81,0.00,,,0.05,0,Wunderground v.1.15,2013-01-26 04:36:00,
2013-01-25 20:41:00,46.5,41.0,29.95,West,277,4.0,6.0,81,0.00,,,0.05,0,Wunderground v.1.15,2013-01-26 04:41:00,
2013-01-25 20:46:00,46.4,40.9,29.95,WNW,283,3.0,8.0,81,0.00,,,0.05,0,Wunderground v.1.15,2013-01-26 04:46:00,
2013-01-25 20:51:00,46.3,40.8,29.95,WNW,284,3.0,8.0,81,0.00,,,0.05,0,Wunderground v.1.15,2013-01-26 04:51:00,
2013-01-25 20:56:00,46.1,40.6,29.95,West,262,4.0,9.0,81,0.00,,,0.05,0,Wunderground v.1.15,2013-01-26 04:56:00,
2013-01-25 21:00:00,46.0,40.5,29.95,West,277,3.0,4.0,81,0.00,,,0.05,0,Wunderground v.1.15,2013-01-26 05:00:00,
2013-01-25 21:01:00,46.0,40.5,29.95,WNW,288,3.0,4.0,81,0.00,,,0.05,0,Wunderground v.1.15,2013-01-26 05:01:00,
2013-01-25 21:06:00,45.9,40.4,29.95,West,271,3.0,8.0,81,0.00,,,0.05,0,Wunderground v.1.15,2013-01-26 05:06:00,
2013-01-25 21:11:00,45.9,40.7,29.95,West,262,10.0,10.0,82,0.00,,,0.05,0,Wunderground v.1.15,2013-01-26 05:11:00,
2013-01-25 21:16:00,45.8,40.6,29.95,WSW,248,7.0,10.0,82,0.00,,,0.05,0,Wunderground v.1.15,2013-01-26 05:16:00,
2013-01-25 21:21:00,45.8,40.6,29.95,West,262,5.0,6.0,82,0.00,,,0.05,0,Wunderground v.1.15,2013-01-26 05:21:00,
2013-01-25 21:26:00,45.7,40.5,29.95,West,265,1.0,10.0,82,0.00,,,0.05,0,Wunderground v.1.15,2013-01-26 05:26:00,
2013-01-25 21:31:00,45.6,40.4,29.95,WSW,247,2.0,5.0,82,0.00,,,0.05,0,Wunderground v.1.15,2013-01-26 05:31:00,
2013-01-25 21:36:00,45.5,40.3,29.95,West,266,3.0,9.0,82,0.00,,,0.05,0,Wunderground v.1.15,2013-01-26 05:36:00,
2013-01-25 21:41:00,45.3,40.1,29.95,West,279,3.0,5.0,82,0.00,,,0.05,0,Wunderground v.1.15,2013-01-26 05:41:00,
2013-01-25 21:46:00,45.2,40.3,29.95,West,273,4.0,7.0,83,0.00,,,0.05,0,Wunderground v.1.15,2013-01-26 05:46:00,
2013-01-25 21:51:00,45.2,40.3,29.95,West,260,2.0,5.0,83,0.00,,,0.05,0,Wunderground v.1.15,2013-01-26 05:51:00,
2013-01-25 21:56:00,45.1,39.9,29.95,West,261,1.0,8.0,82,0.00,,,0.05,0,Wunderground v.1.15,2013-01-26 05:56:00,
2013-01-25 22:01:00,45.1,39.9,29.95,West,259,6.0,7.0,82,0.00,,,0.05,0,Wunderground v.1.15,2013-01-26 06:01:00,
2013-01-25 22:06:00,45.0,39.8,29.95,West,266,2.0,9.0,82,0.00,,,0.05,0,Wunderground v.1.15,2013-01-26 06:06:00,
2013-01-25 22:11:00,45.0,39.8,29.95,SW,232,4.0,6.0,82,0.00,,,0.05,0,Wunderground v.1.15,2013-01-26 06:11:00,
2013-01-25 22:16:00,44.9,39.7,29.96,SW,223,5.0,8.0,82,0.00,,,0.05,0,Wunderground v.1.15,2013-01-26 06:16:00,
2013-01-25 22:21:00,44.9,40.0,29.95,West,264,5.0,7.0,83,0.00,,,0.05,0,Wunderground v.1.15,2013-01-26 06:21:00,
2013-01-25 22:26:00,45.0,40.1,29.95,WSW,249,5.0,12.0,83,0.00,,,0.05,0,Wunderground v.1.15,2013-01-26 06:26:00,
2013-01-25 22:31:00,45.0,40.1,29.95,WSW,257,7.0,9.0,83,0.00,,,0.05,0,Wunderground v.1.15,2013-01-26 06:31:00,
2013-01-25 22:36:00,45.0,39.8,29.95,West,261,7.0,11.0,82,0.00,,,0.05,0,Wunderground v.1.15,2013-01-26 06:36:00,
2013-01-25 22:41:00,45.0,39.8,29.95,WSW,254,6.0,8.0,82,0.00,,,0.05,0,Wunderground v.1.15,2013-01-26 06:41:00,
2013-01-25 22:46:00,45.0,39.8,29.95,WSW,246,3.0,11.0,82,0.00,,,0.05,0,Wunderground v.1.15,2013-01-26 06:46:00,
2013-01-25 22:51:00,44.9,39.7,29.95,SW,236,5.0,7.0,82,0.00,,,0.05,0,Wunderground v.1.15,2013-01-26 06:51:00,
2013-01-25 22:55:00,44.9,39.7,29.95,WSW,252,4.0,9.0,82,0.00,,,0.05,0,Wunderground v.1.15,2013-01-26 06:55:00,
2013-01-25 23:00:00,44.8,39.6,29.95,West,259,2.0,5.0,82,0.00,,,0.05,0,Wunderground v.1.15,2013-01-26 07:00:00,
2013-01-25 23:05:00,44.7,39.5,29.95,West,261,2.0,6.0,82,0.00,,,0.05,0,Wunderground v.1.15,2013-01-26 07:05:00,
2013-01-25 23:10:00,44.7,39.5,29.95,West,261,1.0,3.0,82,0.00,,,0.05,0,Wunderground v.1.15,2013-01-26 07:10:00,
2013-01-25 23:15:00,44.7,39.5,29.95,West,261,3.0,5.0,82,0.00,,,0.05,0,Wunderground v.1.15,2013-01-26 07:15:00,
2013-01-25 23:20:00,44.6,39.4,29.95,West,262,4.0,4.0,82,0.00,,,0.05,0,Wunderground v.1.15,2013-01-26 07:20:00,
2013-01-25 23:25:00,44.6,39.1,29.95,West,275,6.0,9.0,81,0.00,,,0.05,0,Wunderground v.1.15,2013-01-26 07:25:00,
2013-01-25 23:30:00,44.6,39.1,29.95,West,275,8.0,8.0,81,0.00,,,0.05,0,Wunderground v.1.15,2013-01-26 07:30:00,
2013-01-25 23:35:00,44.6,39.1,29.95,SW,229,4.0,9.0,81,0.00,,,0.05,0,Wunderground v.1.15,2013-01-26 07:35:00,
2013-01-25 23:40:00,44.6,39.4,29.95,WSW,241,3.0,5.0,82,0.00,,,0.05,0,Wunderground v.1.15,2013-01-26 07:40:00,
2013-01-25 23:45:00,44.5,39.3,29.95,West,259,3.0,5.0,82,0.00,,,0.05,0,Wunderground v.1.15,2013-01-26 07:45:00,
2013-01-25 23:50:00,44.4,39.2,29.95,WSW,250,2.0,3.0,82,0.00,,,0.05,0,Wunderground v.1.15,2013-01-26 07:50:00,
2013-01-25 23:55:00,44.3,39.2,29.95,SW,230,2.0,5.0,82,0.00,,,0.00,0,Wunderground v.1.15,2013-01-26 07:55:00,